CW6020 Weather Reports


time (UTC)temp
F
wind
direction
speed
knots
gust
knots
rain 1hr
in
rain 24hr
in
rain mn
in
humidity
%
barometer
mb
20260510162021 69 177 7.0 12.2 0.00 0.00 0.00 68 1010.3
20260510161020 70 182 7.0 9.6 0.00 0.00 0.00 66 1010.5
20260510160040 70 181 6.1 9.6 0.00 0.00 0.00 65 1010.7
20260510155020 71 179 6.1 10.4 0.00 0.00 0.00 63 1010.7
20260510154020 71 192 6.1 11.3 0.00 0.00 0.00 62 1010.8
20260510153020 70 178 6.1 11.3 0.00 0.00 0.00 63 1010.9
20260510152020 71 180 6.1 10.4 0.00 0.00 0.00 66 1010.9
20260510151025 71 186 5.2 10.4 0.00 0.00 0.00 66 1010.9
20260510150021 70 176 6.1 9.6 0.00 0.00 0.00 66 1011.1
20260510145041 70 179 6.1 7.8 0.00 0.00 0.00 68 1011.1
20260510144041 69 181 5.2 9.6 0.00 0.00 0.00 71 1011.3
20260510143042 69 184 5.2 11.3 0.00 0.00 0.00 73 1011.4
20260510142021 70 192 5.2 9.6 0.00 0.00 0.00 71 1011.4
20260510141021 69 193 6.1 12.2 0.00 0.00 0.00 73 1011.5
20260510140021 69 186 6.1 10.4 0.00 0.00 0.00 71 1011.4
20260510135021 70 187 6.1 8.7 0.00 0.00 0.00 72 1011.6
20260510134021 70 182 6.1 8.7 0.00 0.00 0.00 68 1011.6
20260510133023 70 195 6.1 12.2 0.00 0.00 0.00 67 1011.8
20260510132021 70 190 7.0 13.0 0.00 0.01 0.00 63 1011.9
20260510131026 69 181 6.1 11.3 0.00 0.03 0.00 67 1011.9
20260510130021 70 180 6.1 11.3 0.00 0.06 0.00 68 1012.1
20260510125021 70 189 6.1 13.0 0.00 0.08 0.00 59 1012.4
20260510124021 70 185 5.2 10.4 0.00 0.08 0.00 66 1012.7
20260510123025 69 176 6.1 11.3 0.00 0.08 0.00 73 1012.7
20260510122021 70 179 6.1 13.0 0.00 0.09 0.00 69 1012.8
20260510121021 70 174 6.1 9.6 0.00 0.09 0.00 63 1012.7
20260510120021 71 174 5.2 10.4 0.00 0.10 0.00 60 1012.8
20260510115021 72 179 4.3 7.0 0.00 0.11 0.00 54 1012.8
20260510114021 72 186 4.3 7.8 0.00 0.17 0.00 54 1012.8
20260510113021 72 173 6.1 11.3 0.00 0.21 0.00 53 1012.8
20260510112021 73 178 5.2 8.7 0.00 0.25 0.00 51 1012.8
20260510111020 73 173 5.2 7.8 0.00 0.26 0.00 52 1012.9
20260510110021 73 203 4.3 7.8 0.00 0.29 0.00 52 1013.0
20260510105020 72 217 4.3 9.6 0.00 0.36 0.00 54 1013.2
20260510104020 71 180 4.3 7.8 0.00 0.40 0.00 57 1013.3
20260510103040 71 188 3.5 8.7 0.00 0.41 0.00 58 1013.5
20260510102020 70 181 4.3 7.8 0.00 0.42 0.00 60 1013.5
20260510101020 71 180 4.3 6.1 0.00 0.42 0.00 58 1013.5
20260510100020 72 191 3.5 5.2 0.00 0.42 0.00 54 1013.6
20260510095041 72 173 3.5 6.1 0.00 0.43 0.00 53 1013.6
20260510094021 72 185 2.6 5.2 0.00 0.43 0.00 51 1013.6
20260510093021 71 208 2.6 4.3 0.00 0.43 0.00 57 1013.8
20260510092021 72 160 2.6 5.2 0.00 0.45 0.00 60 1013.7
20260510091020 71 165 1.7 4.3 0.00 0.46 0.00 57 1013.7
20260510090021 71 244 1.7 2.6 0.00 0.50 0.00 54 1013.6
20260510085021 71 181 1.7 2.6 0.00 0.52 0.00 55 1013.8
20260510084021 70 210 1.7 3.5 0.00 0.54 0.00 55 1013.8
20260510083021 68 252 2.6 5.2 0.00 0.54 0.00 56 1013.7
20260510082021 68 284 2.6 5.2 0.00 0.54 0.00 62 1013.7
20260510081021 67 161 1.7 3.5 0.00 0.54 0.00 69 1013.8
20260510080021 66 145 1.7 3.5 0.00 0.54 0.00 69 1014.0
20260510075021 66 209 1.7 3.5 0.00 0.55 0.00 72 1014.0
20260510074023 65 243 1.7 4.3 0.00 0.55 0.00 72 1013.9
20260510073041 64 197 0.9 3.5 0.00 0.55 0.00 77 1014.0
20260510072021 61 257 0.9 3.5 0.00 0.55 0.00 83 1014.0
20260510071021 60 210 1.7 4.3 0.00 0.57 0.00 91 1013.9
20260510070021 59 215 1.7 3.5 0.00 0.58 0.00 91 1013.9
20260510065021 58 164 0.9 2.6 0.00 0.58 0.00 93 1013.9
20260510064021 57 256 0.9 3.5 0.00 0.58 0.00 95 1013.8
20260510063021 55 130 1.7 3.5 0.00 0.59 0.00 96 1013.7
20260510062021 54 135 0.9 2.6 0.00 0.65 0.00 96 1013.6
20260510061021 53 138 1.7 3.5 0.00 0.69 0.00 97 1013.6
20260510060021 54 138 1.7 3.5 0.00 0.69 0.00 97 1013.5
20260510055021 53 134 1.7 3.5 0.00 0.69 0.00 97 1013.4
20260510054040 52 128 0.9 2.6 0.00 0.69 0.00 97 1013.4
20260510053021 53 116 0.9 3.5 0.00 0.69 0.00 97 1013.3
20260510052020 53 188 0.9 2.6 0.00 0.69 0.00 97 1013.3
20260510051021 52 136 1.7 3.5 0.00 0.69 0.00 97 1013.2
20260510050021 52 153 1.7 5.2 0.00 0.69 0.00 97 1013.2
20260510045021 52 113 1.7 3.5 0.00 0.69 0.00 97 1013.1
20260510044041 52 163 1.7 3.5 0.00 0.69 0.00 97 1013.1
20260510043021 52 165 0.9 3.5 0.00 0.69 0.00 97 1013.0
20260510042021 52 144 0.9 2.6 0.00 0.69 0.00 97 1013.1
20260510041021 52 146 1.7 3.5 0.00 0.69 0.00 97 1013.0
20260510040021 52 15 0.9 3.5 0.00 0.69 0.00 97 1013.0
20260510035020 52 121 0.9 3.5 0.00 0.69 0.00 97 1013.0
20260510034020 52 160 2.6 3.5 0.00 0.69 0.00 97 1012.9
20260510033021 51 187 1.7 3.5 0.00 0.69 0.00 98 1012.8
20260510032021 52 152 1.7 4.3 0.00 0.69 0.00 97 1012.8
20260510031021 52 109 0.9 3.5 0.00 0.69 0.00 97 1012.9
20260510030020 52 153 1.7 5.2 0.00 0.69 0.00 97 1012.9
20260510025021 52 164 1.7 5.2 0.00 0.69 0.00 97 1012.9
20260510024020 52 23 1.7 4.3 0.00 0.69 0.00 97 1012.9
20260510023020 53 169 0.9 4.3 0.00 0.69 0.00 97 1012.8
20260510022020 52 263 1.7 4.3 0.00 0.69 0.00 97 1012.7
20260510021020 53 208 0.9 2.6 0.00 0.69 0.00 97 1012.8
20260510020020 53 168 1.7 4.3 0.00 0.69 0.00 97 1012.8
20260510015020 53 211 0.9 3.5 0.00 0.69 0.00 96 1012.8
20260510014040 54 174 2.6 4.3 0.00 0.69 0.00 96 1012.8
20260510013020 53 336 1.7 4.3 0.00 0.69 0.00 96 1012.9
20260510012020 53 171 0.9 3.5 0.00 0.69 0.00 95 1012.9
20260510011021 55 186 0.0 1.7 0.00 0.69 0.00 95 1012.9
20260510010021 55 0.0 0.9 0.00 0.69 0.00 96 1013.0
20260510005101 55 158 0.0 1.7 0.00 0.69 0.00 95 1013.2
20260510004021 55 218 0.0 1.7 0.00 0.69 0.00 95 1013.2
20260510003021 55 162 0.0 1.7 0.00 0.69 0.00 94 1013.3
20260510002021 55 144 0.9 1.7 0.00 0.69 0.00 94 1013.4
20260510001021 56 112 0.0 1.7 0.00 0.69 0.00 94 1013.6
20260510000020 56 312 0.0 0.9 0.00 0.69 0.00 93 1013.7
20260509235020 56 121 0.9 1.7 0.00 0.69 0.00 92 1013.5
20260509234041 56 308 0.0 1.7 0.00 0.69 0.00 92 1013.7
20260509233020 57 136 1.7 3.5 0.00 0.69 0.00 91 1013.7
20260509232020 57 109 0.9 2.6 0.00 0.69 0.00 89 1013.6
20260509231020 58 228 0.0 1.7 0.00 0.69 0.00 88 1013.7
20260509230021 58 283 0.9 2.6 0.00 0.69 0.00 88 1013.5
20260509225021 58 50 0.0 1.7 0.00 0.69 0.00 90 1013.6
20260509224021 57 266 0.9 2.6 0.00 0.69 0.00 92 1013.7
20260509223021 57 267 0.0 1.7 0.00 0.69 0.00 90 1013.6
20260509222021 58 133 1.7 3.5 0.00 0.69 0.00 90 1013.6
20260509221020 58 334 0.9 2.6 0.00 0.69 0.00 89 1013.8
20260509220021 59 44 1.7 3.5 0.00 0.69 0.00 88 1013.7
20260509215021 60 354 2.6 4.3 0.00 0.69 0.69 86 1013.7
20260509214021 60 342 3.5 6.1 0.00 0.69 0.69 87 1013.7
20260509213021 59 313 2.6 4.3 0.00 0.69 0.69 89 1013.7
20260509212021 59 312 0.9 2.6 0.00 0.69 0.69 89 1013.5
20260509211021 59 156 0.0 1.7 0.00 0.69 0.69 89 1013.6
20260509210021 60 166 0.0 0.9 0.00 0.69 0.69 87 1013.4
20260509205021 60 100 0.0 1.7 0.00 0.69 0.69 87 1013.4
20260509204041 60 311 0.9 3.5 0.00 0.69 0.69 86 1013.5
20260509203021 60 223 0.9 2.6 0.00 0.69 0.69 86 1013.5
20260509202021 60 173 1.7 3.5 0.00 0.69 0.69 86 1013.2
20260509201021 60 202 1.7 4.3 0.00 0.69 0.69 87 1013.0
20260509200021 60 216 1.7 4.3 0.00 0.69 0.69 87 1012.9
20260509195041 60 185 1.7 3.5 0.00 0.69 0.69 87 1012.7
20260509194021 60 181 1.7 2.6 0.00 0.69 0.69 88 1012.6
20260509193021 60 177 0.9 1.7 0.00 0.69 0.69 89 1012.4
20260509192021 60 164 0.9 1.7 0.00 0.69 0.69 89 1012.3
20260509191041 61 302 0.0 0.9 0.00 0.69 0.69 88 1012.3
20260509190021 61 0.0 0.9 0.00 0.69 0.69 87 1012.3
20260509185021 62 355 0.0 1.7 0.00 0.69 0.69 87 1012.2
20260509184021 62 134 0.0 1.7 0.00 0.69 0.69 86 1012.0
20260509183021 62 159 0.0 1.7 0.00 0.69 0.69 84 1011.7
20260509182021 62 243 0.9 5.2 0.00 0.69 0.69 85 1011.6
20260509181020 62 331 4.3 7.0 0.00 0.69 0.69 83 1011.4
20260509180021 63 320 3.5 7.0 0.00 0.69 0.69 81 1011.5
20260509175021 64 306 2.6 7.0 0.00 0.69 0.69 80 1011.4
20260509174020 65 262 1.7 5.2 0.00 0.69 0.69 78 1011.3
20260509173041 66 268 2.6 6.1 0.00 0.69 0.69 78 1011.2
20260509172021 65 239 2.6 4.3 0.00 0.69 0.69 80 1011.2
20260509171021 64 325 6.1 13.0 0.00 0.69 0.69 80 1011.0
20260509170022 65 314 4.3 14.8 0.00 0.69 0.69 78 1010.8
20260509165020 66 339 4.3 10.4 0.00 0.69 0.69 76 1011.0
20260509164020 66 232 2.6 5.2 0.00 0.69 0.69 79 1010.8
20260509163021 64 161 1.7 3.5 0.00 0.69 0.69 81 1010.8